Flag for U.S.A. Weather past 2 weeks in Santa Rosa, California, U.S.A.

Now
42 °F

Sunny.


Feels Like: 42 °F
Forecast: 39 / 62 °F
Wind: No wind

Location: Santa Rosa Sonoma County Airport

Current Time: Mar 3, 2015 at 9:06:21 AM

Latest Report: Mar 3, 2015 at 7:53 AM


Visibility: 10 mi

Pressure: 30.02 "Hg

Humidity: 92%

Dew point: 40 °F

Location of Santa RosaLocation

Historic Weather in Santa Rosa — Graph

°F

Santa Rosa temperature yesterday

Maximum temperature yesterday: 62 °F (at 3:53 PM)
Minimum temperature yesterday: 41 °F (at 2:53 AM)
Average temperature yesterday: 49 °F

Past Weeks' High & Low Weather Summary

 TemperatureHumidityPressure
High73 °F (Feb 16, 2:53 PM)100% (Feb 16, 8:53 PM)30.34 "Hg (Feb 16, 8:53 PM)
Low31 °F (Feb 24, 5:53 AM)16% (Feb 23, 6:53 AM)29.69 "Hg (Feb 28, 3:53 AM)
Average52 °F75%29.98 "Hg
* Reported Feb 16 7:53 AM — Mar 3 7:53 AM, Santa Rosa, Weather by CustomWeather, © 2015

Note: Actual official high and low records may vary slightly from our data, if they occured in-between our weather recording intervals... More about our weather records

Advertising

Santa Rosa weather history for previous 24 hours

 ConditionsComfort  
Time TempWeatherWind HumidityBarometerVisibility
7:53 AM
Tue, Mar 3
42 °FSunny.No wind92%30.02 "Hg10 mi
6:53 AM38 °FFog.5 mph97%30.00 "Hg10 mi
5:53 AM38 °FClear.6 mph97%29.98 "Hg7 mi
4:53 AM37 °FClear.6 mph100%29.98 "Hg7 mi
3:53 AM39 °FClear.6 mph96%29.97 "Hg7 mi
2:53 AM39 °FClear.6 mph96%29.97 "Hg7 mi
1:53 AM40 °FClear.No wind97%29.98 "Hg7 mi
12:53 AM40 °FClear.3 mph97%29.97 "Hg7 mi
11:53 PM
Mon, Mar 2
42 °FClear.No wind92%29.97 "Hg8 mi
10:53 PM43 °FClear.3 mph93%29.96 "Hg7 mi
9:53 PM46 °FClear.No wind86%29.94 "Hg7 mi
8:53 PM46 °FClear.No wind86%29.91 "Hg8 mi
7:53 PM48 °FClear.No wind80%29.89 "Hg8 mi
6:53 PM52 °FPassing clouds.No wind64%29.85 "Hg10 mi
5:53 PM58 °FScattered clouds.No wind51%29.83 "Hg10 mi
4:53 PM60 °FScattered clouds.8 mph49%29.80 "Hg10 mi
3:53 PM62 °FScattered clouds.8 mph44%29.78 "Hg10 mi
2:53 PM60 °FPartly sunny.8 mph47%29.77 "Hg10 mi
1:53 PM58 °FPartly sunny.7 mph62%29.75 "Hg10 mi
12:53 PM57 °FPartly sunny.5 mph64%29.76 "Hg10 mi
11:53 AM57 °FBroken clouds.3 mph64%29.76 "Hg7 mi
10:53 AM54 °FBroken clouds.5 mph72%29.76 "Hg7 mi
9:53 AM49 °FPartly sunny.5 mph84%29.78 "Hg7 mi
Weather by CustomWeather, © 2015

See weather overviewHow to use our weather pages